User: anonymous   Login
Location: Ikejouine
(32.5142°N, 5.4699°W)
Time: 13:57:44
(UTC+00:00)
Language:

Resurs 1-3 - Orbit

View from above orbital plane
View from above orbital plane
View from above satellite
View from above satellite

Ground track
Ground track

The orbit data is extracted from the following two-line orbital elements,

1 23342U 94074A   20192.07897124 -.00000020  00000-0  42398-5 0  9994
2 23342  97.9283 240.6644 0002069  91.3642 268.7806 14.79439837383200
Epoch (UTC): 10 July 2020 01:53:43
Eccentricity: 0.0002069
inclination: 97.9283°
perigee height: 629 km
apogee height: 632 km
right ascension of ascending node: 240.6644°
argument of perigee: 91.3642°
revolutions per day: 14.79439837
mean anomaly at epoch: 268.7806°
orbit number at epoch: 38320

The dashed part of the orbit path shows where the satellite is in the earth's shadow,  

DLR